Flag for U.S.A. Weather past 2 weeks in Idaho Falls, Idaho, U.S.A.

Now
48 °F

Clear.


Feels Like: 43 °F
Forecast: 42 / 69 °F
Wind: 12 mph from Southwest

Location: Fanning Field

Current Time: Sep 1, 2014 at 5:19:18 AM

Latest Report: Sep 1, 2014 at 4:53 AM


Visibility: 10 mi

Pressure: 29.94 "Hg

Humidity: 74%

Dew point: 40 °F

Location of Idaho FallsLocation

Historic Weather in Idaho Falls — Graph

°F

Idaho Falls temperature yesterday

Maximum temperature yesterday: 68 °F (at 4:53 PM)
Minimum temperature yesterday: 51 °F (at 6:53 AM)
Average temperature yesterday: 59 °F

Past Weeks' High & Low Weather Summary

 TemperatureHumidityPressure
High90 °F (Aug 18, 4:53 PM)97% (Aug 20, 7:53 AM)30.21 "Hg (Aug 20, 7:53 AM)
Low42 °F (Aug 24, 6:53 AM)14% (Aug 18, 4:53 PM)29.71 "Hg (Aug 19, 5:53 PM)
Average62 °F64%29.96 "Hg
* Reported Aug 17 3:53 AM — Sep 1 3:53 AM, Idaho Falls, Weather by CustomWeather, © 2014

Note: Actual official high and low records may vary slightly from our data, if they occured in-between our weather recording intervals... More about our weather records

Advertising

Idaho Falls weather history for previous 24 hours

 ConditionsComfort  
Time TempWeatherWind HumidityBarometerVisibility
3:53 AM
Sep 1
52 °FClear.13 mph64%29.92 "Hg10 mi
2:53 AM53 °FClear.13 mph59%29.92 "Hg10 mi
1:53 AM58 °FClear.17 mph47%29.89 "Hg10 mi
12:53 AM59 °FClear.12 mph42%29.89 "Hg10 mi
11:53 PM
Aug 31
57 °FPassing clouds.8 mph44%29.91 "Hg10 mi
10:53 PM57 °FClear.9 mph46%29.93 "Hg10 mi
9:53 PM59 °FSunny.13 mph46%29.94 "Hg10 mi
8:53 PM61 °FSunny.14 mph42%29.93 "Hg10 mi
7:53 PM64 °FSunny.14 mph38%29.92 "Hg10 mi
6:53 PM67 °FPassing clouds.21 mph36%29.91 "Hg10 mi
5:53 PM68 °FScattered clouds.17 mph38%29.91 "Hg10 mi
4:53 PM68 °FScattered clouds.17 mph40%29.92 "Hg10 mi
3:53 PM67 °FScattered clouds.15 mph42%29.93 "Hg10 mi
2:53 PM65 °FScattered clouds.15 mph47%29.95 "Hg10 mi
1:53 PM64 °FBroken clouds.17 mph50%29.96 "Hg10 mi
12:53 PM62 °FPartly sunny.18 mph58%29.98 "Hg10 mi
11:53 AM60 °FBroken clouds.17 mph65%29.97 "Hg10 mi
10:53 AM57 °FBroken clouds.10 mph74%29.97 "Hg10 mi
9:53 AM53 °FMostly cloudy.12 mph89%29.95 "Hg10 mi
8:53 AM52 °FLight rain. Mostly cloudy.9 mph89%29.94 "Hg9 mi
7:53 AM51 °FLight rain. Mostly cloudy.5 mph92%29.92 "Hg9 mi
6:53 AM51 °FOvercast.5 mph86%29.88 "Hg10 mi
5:53 AM54 °FMostly cloudy.16 mph80%29.83 "Hg10 mi
Weather by CustomWeather, © 2014

See weather overviewHow to use our weather pages